QPF
0.00 0.00 0.00 0.00 0.00 0.00 0.00 0.00 0.01 0.01 0.01 0.01 0.02 0.02 0.02 0.03 0.05 0.13 0.11 0.08 0.16 0.20 0.18 0.14 0.14 0.21 0.16 0.14 0.13 0.13 0.12 0.14 0.10 0.07 0.05 0.04 0.03 0.03 0.03 0.03 0.02 0.01 0.01 0.01
0.00 0.00 0.00 0.00 0.00 0.00 0.00 0.00 0.00 0.01 0.01 0.01 0.01 0.01 0.01 0.02 0.06 0.10 0.07 0.08 0.11 0.16 0.14 0.15 0.14 0.18 0.16 0.15 0.12 0.11 0.09 0.10 0.08 0.06 0.05 0.04 0.02 0.03 0.03 0.02 0.01 0.01 0.01 0.00
0.00 0.00 0.00 0.00 0.00 0.00 0.00 0.00 0.00 0.00 0.01 0.01 0.02 0.03 0.03 0.03 0.05 0.08 0.07 0.09 0.08 0.13 0.11 0.15 0.14 0.14 0.12 0.14 0.11 0.09 0.08 0.07 0.06 0.05 0.04 0.04 0.02 0.05 0.04 0.02 0.02 0.01 0.01 0.00
0.00 0.00 0.00 0.00 0.00 0.00 0.00 0.00 0.00 0.00 0.01 0.02 0.02 0.03 0.04 0.04 0.05 0.06 0.05 0.06 0.07 0.08 0.12 0.14 0.13 0.11 0.08 0.09 0.12 0.11 0.08 0.07 0.06 0.05 0.03 0.02 0.01 0.03 0.04 0.01 0.01 0.01 0.00 0.00
0.00 0.00 0.00 0.00 0.00 0.00 0.00 0.00 0.00 0.00 0.01 0.03 0.03 0.04 0.04 0.05 0.05 0.04 0.04 0.04 0.05 0.05 0.09 0.13 0.12 0.11 0.09 0.07 0.10 0.13 0.09 0.08 0.08 0.06 0.05 0.03 0.01 0.03 0.04 0.02 0.01 0.00 0.00 0.00
0.00 0.00 0.00 0.00 0.00 0.00 0.00 0.01 0.01 0.01 0.02 0.05 0.05 0.06 0.06 0.06 0.04 0.04 0.03 0.02 0.04 0.04 0.07 0.10 0.09 0.09 0.07 0.07 0.06 0.09 0.08 0.07 0.07 0.07 0.06 0.03 0.02 0.02 0.03 0.01 0.00 0.00 0.00 0.00
0.00 0.00 0.00 0.00 0.00 0.00 0.01 0.01 0.01 0.03 0.04 0.06 0.05 0.07 0.07 0.06 0.04 0.04 0.03 0.02 0.02 0.03 0.05 0.06 0.05 0.04 0.04 0.04 0.04 0.05 0.08 0.07 0.06 0.06 0.05 0.03 0.02 0.02 0.02 0.01 0.00 0.00 0.00 0.00
0.00 0.00 0.00 0.00 0.01 0.01 0.01 0.01 0.03 0.04 0.05 0.06 0.08 0.11 0.10 0.07 0.03 0.02 0.02 0.02 0.01 0.01 0.03 0.03 0.03 0.02 0.02 0.02 0.03 0.04 0.06 0.07 0.06 0.06 0.05 0.04 0.03 0.03 0.03 0.01 0.00 0.00 0.00 0.00
0.00 0.00 0.01 0.01 0.00 0.01 0.02 0.02 0.03 0.03 0.04 0.07 0.13 0.18 0.14 0.06 0.03 0.02 0.03 0.01 0.01 0.01 0.02 0.02 0.02 0.02 0.01 0.01 0.02 0.02 0.03 0.05 0.06 0.06 0.05 0.03 0.03 0.03 0.03 0.01 0.01 0.00 0.00 0.00
0.00 0.00 0.01 0.01 0.01 0.01 0.01 0.03 0.03 0.03 0.05 0.10 0.13 0.15 0.16 0.08 0.04 0.03 0.03 0.01 0.01 0.01 0.01 0.02 0.01 0.01 0.01 0.01 0.01 0.01 0.02 0.04 0.07 0.06 0.05 0.03 0.01 0.02 0.02 0.01 0.00 0.00 0.00 0.00
0.01 0.01 0.01 0.01 0.02 0.02 0.02 0.02 0.03 0.03 0.04 0.08 0.13 0.13 0.11 0.08 0.04 0.03 0.03 0.02 0.01 0.01 0.00 0.01 0.01 0.03 0.04 0.03 0.01 0.01 0.02 0.05 0.08 0.06 0.05 0.03 0.02 0.01 0.01 0.00 0.00 0.00 0.00 0.00
0.02 0.03 0.03 0.02 0.02 0.02 0.03 0.03 0.04 0.04 0.04 0.05 0.09 0.09 0.07 0.08 0.05 0.03 0.05 0.04 0.02 0.01 0.01 0.00 0.01 0.02 0.09 0.14 0.08 0.03 0.02 0.05 0.10 0.06 0.04 0.04 0.02 0.01 0.00 0.00 0.00 0.00 0.00 0.00
0.03 0.04 0.06 0.05 0.04 0.04 0.04 0.04 0.05 0.06 0.06 0.04 0.05 0.07 0.07 0.04 0.03 0.03 0.03 0.03 0.02 0.01 0.01 0.00 0.00 0.01 0.03 0.07 0.11 0.06 0.02 0.03 0.06 0.04 0.03 0.03 0.02 0.01 0.00 0.00 0.00 0.00 0.00 0.00
0.01 0.03 0.05 0.06 0.05 0.07 0.07 0.06 0.04 0.05 0.05 0.05 0.04 0.07 0.07 0.06 0.04 0.04 0.04 0.03 0.02 0.02 0.01 0.01 0.00 0.01 0.01 0.01 0.02 0.02 0.01 0.01 0.02 0.02 0.01 0.01 0.01 0.00 0.00 0.00 0.00 0.00 0.00 0.00
0.02 0.02 0.02 0.03 0.03 0.04 0.05 0.05 0.04 0.03 0.03 0.03 0.02 0.04 0.07 0.06 0.06 0.06 0.08 0.05 0.03 0.03 0.02 0.01 0.00 0.00 0.01 0.01 0.01 0.01 0.01 0.01 0.00 0.00 0.00 0.00 0.00 0.00 0.00 0.00 0.00 0.00 0.00 0.00
0.05 0.04 0.05 0.04 0.03 0.03 0.03 0.02 0.02 0.02 0.02 0.02 0.02 0.04 0.06 0.05 0.04 0.05 0.06 0.07 0.02 0.02 0.02 0.01 0.01 0.00 0.00 0.01 0.00 0.00 0.00 0.00 0.00 0.00 0.00 0.00 0.00 0.00 0.00 0.00 0.00 0.00 0.00 0.00
0.08 0.08 0.07 0.07 0.05 0.05 0.03 0.02 0.02 0.02 0.02 0.03 0.03 0.05 0.07 0.05 0.03 0.03 0.03 0.06 0.03 0.02 0.02 0.02 0.01 0.01 0.01 0.00 0.00 0.00 0.00 0.00 0.00 0.00 0.00 0.00 0.00 0.00 0.00 0.00 0.00 0.00 0.00 0.00
0.04 0.06 0.08 0.07 0.09 0.08 0.04 0.03 0.03 0.03 0.03 0.03 0.04 0.06 0.08 0.05 0.05 0.05 0.06 0.05 0.05 0.02 0.02 0.02 0.01 0.01 0.01 0.01 0.00 0.00 0.00 0.00 0.00 0.00 0.01 0.00 0.00 0.01 0.01 0.00 0.00 0.00 0.00 0.00
0.03 0.05 0.07 0.09 0.11 0.07 0.03 0.05 0.05 0.07 0.06 0.07 0.07 0.07 0.09 0.10 0.09 0.08 0.07 0.09 0.07 0.04 0.03 0.02 0.02 0.01 0.01 0.01 0.01 0.00 0.01 0.01 0.01 0.01 0.01 0.00 0.00 0.01 0.01 0.01 0.00 0.00 0.00 0.00
0.03 0.05 0.08 0.07 0.07 0.06 0.04 0.03 0.04 0.06 0.11 0.15 0.15 0.14 0.12 0.11 0.11 0.09 0.06 0.05 0.05 0.05 0.05 0.03 0.02 0.02 0.02 0.02 0.02 0.02 0.01 0.01 0.01 0.01 0.00 0.01 0.01 0.01 0.01 0.00 0.00 0.00 0.00 0.00
0.08 0.08 0.08 0.09 0.09 0.06 0.04 0.04 0.05 0.10 0.14 0.23 0.28 0.26 0.20 0.18 0.14 0.09 0.06 0.04 0.03 0.03 0.04 0.03 0.03 0.03 0.04 0.05 0.04 0.03 0.02 0.02 0.02 0.02 0.01 0.01 0.01 0.01 0.01 0.00 0.00 0.00 0.00 0.00
0.12 0.14 0.12 0.12 0.14 0.11 0.08 0.08 0.11 0.17 0.20 0.26 0.29 0.31 0.27 0.24 0.21 0.16 0.11 0.05 0.03 0.02 0.03 0.03 0.03 0.03 0.03 0.04 0.04 0.05 0.05 0.05 0.04 0.03 0.02 0.01 0.01 0.01 0.01 0.01 0.01 0.00 0.00 0.01
0.13 0.16 0.17 0.14 0.15 0.13 0.13 0.16 0.19 0.24 0.28 0.31 0.23 0.20 0.19 0.18 0.19 0.18 0.14 0.09 0.05 0.04 0.04 0.04 0.04 0.05 0.08 0.08 0.09 0.09 0.08 0.08 0.07 0.05 0.04 0.04 0.03 0.03 0.03 0.03 0.03 0.02 0.01 0.01
0.10 0.12 0.17 0.18 0.18 0.16 0.16 0.14 0.21 0.34 0.33 0.25 0.18 0.17 0.16 0.13 0.12 0.09 0.07 0.05 0.04 0.03 0.04 0.03 0.03 0.05 0.08 0.08 0.07 0.08 0.09 0.09 0.07 0.07 0.07 0.07 0.07 0.06 0.05 0.05 0.05 0.04 0.03 0.02
0.06 0.08 0.11 0.13 0.15 0.14 0.13 0.13 0.14 0.22 0.21 0.15 0.14 0.14 0.12 0.08 0.06 0.03 0.02 0.01 0.01 0.02 0.03 0.04 0.04 0.05 0.06 0.06 0.07 0.08 0.10 0.10 0.08 0.07 0.09 0.09 0.07 0.06 0.06 0.05 0.03 0.03 0.02 0.03
0.06 0.06 0.08 0.14 0.15 0.14 0.11 0.13 0.14 0.13 0.11 0.09 0.12 0.11 0.07 0.05 0.07 0.05 0.02 0.02 0.02 0.03 0.05 0.06 0.08 0.10 0.12 0.13 0.17 0.17 0.16 0.16 0.15 0.12 0.12 0.11 0.10 0.09 0.08 0.06 0.05 0.05 0.04 0.04
MSLP
1009.76 1010.39 1010.81 1011.05 1011.17 1011.21 1011.23 1011.25 1011.26 1011.25 1011.19 1011.05 1010.84 1010.57 1010.27 1009.99 1009.75 1009.60 1009.52 1009.51 1009.53 1009.54 1009.51 1009.44 1009.34 1009.26 1009.23 1009.32 1009.55 1009.94 1010.47 1011.09 1011.74 1012.34 1012.84 1013.20 1013.43 1013.53 1013.55 1013.55 1013.57 1013.67 1013.85 1014.12
1010.11 1010.57 1010.81 1010.91 1010.94 1010.98 1011.07 1011.22 1011.41 1011.59 1011.68 1011.65 1011.48 1011.18 1010.80 1010.40 1010.05 1009.81 1009.69 1009.67 1009.74 1009.82 1009.89 1009.90 1009.85 1009.78 1009.75 1009.79 1009.97 1010.31 1010.80 1011.41 1012.05 1012.67 1013.19 1013.55 1013.77 1013.83 1013.80 1013.74 1013.71 1013.77 1013.94 1014.22
1010.14 1010.41 1010.48 1010.45 1010.43 1010.50 1010.70 1011.04 1011.46 1011.85 1012.14 1012.24 1012.13 1011.83 1011.38 1010.88 1010.43 1010.11 1009.94 1009.94 1010.05 1010.22 1010.39 1010.49 1010.52 1010.49 1010.45 1010.46 1010.57 1010.84 1011.26 1011.80 1012.40 1012.99 1013.49 1013.84 1014.04 1014.08 1014.03 1013.94 1013.89 1013.94 1014.11 1014.42
1009.85 1009.95 1009.87 1009.75 1009.72 1009.87 1010.25 1010.81 1011.48 1012.12 1012.62 1012.87 1012.84 1012.53 1012.02 1011.42 1010.87 1010.45 1010.22 1010.21 1010.37 1010.62 1010.88 1011.09 1011.21 1011.23 1011.19 1011.17 1011.22 1011.39 1011.71 1012.16 1012.68 1013.21 1013.67 1014.01 1014.20 1014.24 1014.20 1014.12 1014.09 1014.15 1014.34 1014.67
1009.33 1009.27 1009.10 1008.95 1008.97 1009.25 1009.83 1010.64 1011.58 1012.47 1013.17 1013.56 1013.59 1013.26 1012.69 1011.98 1011.30 1010.76 1010.47 1010.42 1010.59 1010.90 1011.26 1011.56 1011.76 1011.84 1011.82 1011.77 1011.76 1011.84 1012.06 1012.40 1012.83 1013.29 1013.70 1014.03 1014.23 1014.30 1014.30 1014.27 1014.27 1014.37 1014.59 1014.93
1008.69 1008.53 1008.30 1008.18 1008.31 1008.77 1009.57 1010.64 1011.82 1012.94 1013.81 1014.30 1014.35 1013.99 1013.32 1012.48 1011.66 1011.00 1010.60 1010.49 1010.66 1011.00 1011.43 1011.81 1012.09 1012.23 1012.25 1012.19 1012.13 1012.14 1012.25 1012.49 1012.83 1013.22 1013.60 1013.92 1014.15 1014.28 1014.34 1014.38 1014.45 1014.59 1014.84 1015.18
1008.05 1007.84 1007.63 1007.60 1007.87 1008.52 1009.54 1010.84 1012.22 1013.50 1014.48 1015.02 1015.06 1014.63 1013.84 1012.86 1011.88 1011.08 1010.57 1010.39 1010.53 1010.89 1011.36 1011.82 1012.17 1012.38 1012.44 1012.40 1012.32 1012.27 1012.31 1012.46 1012.73 1013.06 1013.42 1013.74 1014.01 1014.21 1014.35 1014.47 1014.61 1014.80 1015.07 1015.41
1007.51 1007.31 1007.17 1007.26 1007.70 1008.53 1009.74 1011.19 1012.71 1014.07 1015.09 1015.61 1015.59 1015.06 1014.15 1013.03 1011.91 1010.98 1010.36 1010.11 1010.21 1010.57 1011.07 1011.60 1012.03 1012.31 1012.43 1012.43 1012.36 1012.29 1012.29 1012.39 1012.60 1012.90 1013.24 1013.59 1013.90 1014.17 1014.39 1014.58 1014.78 1015.02 1015.29 1015.62
1007.11 1006.97 1006.94 1007.17 1007.76 1008.74 1010.07 1011.61 1013.16 1014.51 1015.48 1015.93 1015.81 1015.17 1014.14 1012.90 1011.68 1010.66 1009.96 1009.66 1009.73 1010.09 1010.63 1011.21 1011.72 1012.09 1012.29 1012.35 1012.32 1012.27 1012.27 1012.35 1012.54 1012.82 1013.16 1013.52 1013.87 1014.19 1014.47 1014.73 1014.97 1015.23 1015.51 1015.81
1006.84 1006.80 1006.91 1007.27 1007.99 1009.05 1010.41 1011.94 1013.43 1014.68 1015.53 1015.85 1015.61 1014.87 1013.75 1012.45 1011.17 1010.11 1009.39 1009.07 1009.14 1009.52 1010.10 1010.73 1011.32 1011.77 1012.07 1012.22 1012.26 1012.27 1012.30 1012.40 1012.59 1012.87 1013.21 1013.58 1013.95 1014.30 1014.62 1014.91 1015.18 1015.45 1015.71 1015.98
1006.68 1006.76 1007.00 1007.47 1008.25 1009.33 1010.64 1012.05 1013.38 1014.45 1015.11 1015.28 1014.92 1014.09 1012.94 1011.64 1010.39 1009.36 1008.68 1008.39 1008.49 1008.90 1009.52 1010.21 1010.87 1011.41 1011.81 1012.06 1012.20 1012.29 1012.39 1012.53 1012.75 1013.04 1013.38 1013.75 1014.12 1014.48 1014.80 1015.10 1015.37 1015.63 1015.88 1016.13
1006.58 1006.79 1007.13 1007.68 1008.47 1009.48 1010.66 1011.87 1012.97 1013.80 1014.25 1014.24 1013.77 1012.91 1011.78 1010.54 1009.39 1008.46 1007.87 1007.66 1007.82 1008.27 1008.93 1009.66 1010.38 1011.00 1011.49 1011.85 1012.11 1012.30 1012.48 1012.69 1012.95 1013.25 1013.60 1013.96 1014.32 1014.66 1014.97 1015.25 1015.51 1015.76 1015.99 1016.22
1006.53 1006.85 1007.27 1007.84 1008.59 1009.48 1010.45 1011.41 1012.23 1012.80 1013.02 1012.84 1012.29 1011.43 1010.37 1009.26 1008.25 1007.48 1007.02 1006.91 1007.14 1007.63 1008.32 1009.08 1009.83 1010.51 1011.09 1011.54 1011.91 1012.22 1012.50 1012.78 1013.09 1013.42 1013.77 1014.12 1014.46 1014.77 1015.06 1015.32 1015.56 1015.78 1016.00 1016.22
1006.53 1006.93 1007.40 1007.96 1008.61 1009.34 1010.08 1010.76 1011.29 1011.58 1011.58 1011.26 1010.65 1009.82 1008.87 1007.91 1007.09 1006.48 1006.17 1006.17 1006.45 1006.98 1007.67 1008.43 1009.19 1009.91 1010.54 1011.08 1011.55 1011.96 1012.34 1012.72 1013.09 1013.46 1013.82 1014.16 1014.48 1014.77 1015.03 1015.26 1015.48 1015.70 1015.91 1016.12
1006.63 1007.08 1007.56 1008.07 1008.61 1009.15 1009.65 1010.05 1010.30 1010.34 1010.14 1009.70 1009.06 1008.27 1007.43 1006.64 1005.99 1005.55 1005.36 1005.44 1005.77 1006.29 1006.96 1007.69 1008.44 1009.16 1009.82 1010.43 1010.99 1011.50 1011.98 1012.44 1012.88 1013.30 1013.69 1014.04 1014.35 1014.62 1014.86 1015.08 1015.29 1015.49 1015.71 1015.93
1006.88 1007.34 1007.79 1008.23 1008.63 1008.99 1009.27 1009.43 1009.43 1009.25 1008.88 1008.35 1007.68 1006.95 1006.21 1005.55 1005.04 1004.72 1004.62 1004.75 1005.08 1005.57 1006.18 1006.86 1007.56 1008.27 1008.95 1009.61 1010.23 1010.84 1011.41 1011.96 1012.48 1012.96 1013.38 1013.75 1014.07 1014.34 1014.58 1014.79 1015.00 1015.21 1015.43 1015.65
1007.30 1007.73 1008.12 1008.47 1008.75 1008.95 1009.04 1008.99 1008.79 1008.44 1007.95 1007.34 1006.65 1005.95 1005.28 1004.71 1004.28 1004.03 1003.97 1004.09 1004.38 1004.81 1005.35 1005.96 1006.61 1007.28 1007.97 1008.66 1009.35 1010.03 1010.70 1011.33 1011.92 1012.46 1012.93 1013.34 1013.68 1013.97 1014.22 1014.45 1014.66 1014.88 1015.10 1015.33
1007.88 1008.24 1008.55 1008.81 1008.98 1009.04 1008.98 1008.79 1008.45 1007.97 1007.38 1006.71 1006.00 1005.29 1004.65 1004.11 1003.71 1003.46 1003.38 1003.47 1003.69 1004.05 1004.50 1005.04 1005.64 1006.29 1006.98 1007.70 1008.44 1009.19 1009.93 1010.64 1011.30 1011.89 1012.42 1012.86 1013.24 1013.56 1013.83 1014.08 1014.31 1014.54 1014.76 1014.98
1008.54 1008.80 1009.02 1009.18 1009.25 1009.21 1009.06 1008.76 1008.33 1007.78 1007.12 1006.40 1005.66 1004.93 1004.27 1003.71 1003.28 1002.99 1002.86 1002.87 1003.03 1003.30 1003.69 1004.17 1004.74 1005.38 1006.08 1006.83 1007.62 1008.42 1009.21 1009.97 1010.68 1011.32 1011.89 1012.37 1012.79 1013.14 1013.44 1013.71 1013.96 1014.19 1014.41 1014.61
1009.18 1009.32 1009.43 1009.49 1009.47 1009.37 1009.15 1008.81 1008.34 1007.75 1007.06 1006.30 1005.52 1004.75 1004.04 1003.42 1002.93 1002.58 1002.38 1002.32 1002.41 1002.63 1002.98 1003.44 1004.00 1004.64 1005.36 1006.14 1006.96 1007.79 1008.61 1009.40 1010.13 1010.80 1011.38 1011.89 1012.33 1012.71 1013.04 1013.33 1013.59 1013.83 1014.04 1014.22
1009.68 1009.68 1009.67 1009.63 1009.55 1009.40 1009.16 1008.81 1008.33 1007.74 1007.04 1006.27 1005.45 1004.64 1003.87 1003.19 1002.63 1002.21 1001.94 1001.83 1001.88 1002.08 1002.42 1002.89 1003.47 1004.15 1004.90 1005.70 1006.53 1007.37 1008.18 1008.96 1009.68 1010.33 1010.91 1011.42 1011.87 1012.26 1012.60 1012.91 1013.18 1013.42 1013.62 1013.77
1009.91 1009.77 1009.65 1009.52 1009.39 1009.22 1008.98 1008.65 1008.21 1007.64 1006.96 1006.19 1005.37 1004.53 1003.71 1002.98 1002.36 1001.89 1001.58 1001.45 1001.50 1001.71 1002.09 1002.60 1003.22 1003.93 1004.70 1005.51 1006.33 1007.14 1007.92 1008.65 1009.31 1009.92 1010.46 1010.94 1011.37 1011.76 1012.11 1012.43 1012.70 1012.93 1013.12 1013.24
1009.82 1009.55 1009.32 1009.12 1008.95 1008.78 1008.56 1008.28 1007.89 1007.39 1006.76 1006.02 1005.22 1004.37 1003.55 1002.79 1002.15 1001.66 1001.35 1001.24 1001.32 1001.58 1002.01 1002.58 1003.26 1004.00 1004.79 1005.58 1006.36 1007.11 1007.80 1008.44 1009.02 1009.54 1010.02 1010.45 1010.85 1011.22 1011.56 1011.87 1012.14 1012.37 1012.54 1012.65
1009.41 1009.03 1008.70 1008.45 1008.25 1008.09 1007.92 1007.70 1007.40 1006.98 1006.43 1005.76 1005.01 1004.21 1003.41 1002.67 1002.05 1001.59 1001.32 1001.26 1001.40 1001.74 1002.24 1002.87 1003.59 1004.35 1005.12 1005.87 1006.58 1007.23 1007.81 1008.33 1008.79 1009.21 1009.60 1009.96 1010.32 1010.66 1010.98 1011.29 1011.55 1011.77 1011.93 1012.03
1008.72 1008.25 1007.86 1007.57 1007.36 1007.23 1007.12 1006.99 1006.78 1006.47 1006.03 1005.47 1004.81 1004.09 1003.36 1002.69 1002.14 1001.75 1001.55 1001.57 1001.79 1002.21 1002.78 1003.46 1004.20 1004.95 1005.68 1006.36 1006.97 1007.49 1007.93 1008.31 1008.65 1008.95 1009.25 1009.54 1009.84 1010.15 1010.46 1010.75 1011.01 1011.22 1011.37 1011.45
1007.86 1007.33 1006.90 1006.59 1006.40 1006.31 1006.27 1006.23 1006.14 1005.95 1005.65 1005.22 1004.69 1004.10 1003.49 1002.93 1002.48 1002.19 1002.10 1002.20 1002.51 1002.99 1003.61 1004.31 1005.05 1005.76 1006.43 1007.00 1007.48 1007.87 1008.17 1008.41 1008.62 1008.82 1009.03 1009.26 1009.51 1009.79 1010.08 1010.36 1010.61 1010.81 1010.96 1011.03
Thickness
5782 5765 5754 5762 5769 5769 5767 5762 5761 5777 5794 5785 5773 5769 5772 5773 5771 5765 5760 5756 5752 5749 5749 5750 5748 5748 5747 5746 5745 5744 5743 5742 5741 5739 5738 5736 5735 5736 5737 5738 5737 5736 5736 5735
5761 5756 5774 5781 5781 5777 5771 5763 5764 5778 5793 5783 5767 5764 5769 5771 5769 5767 5761 5756 5752 5747 5745 5745 5746 5745 5744 5742 5742 5742 5741 5740 5740 5739 5738 5737 5735 5734 5735 5735 5735 5735 5734 5733
5752 5767 5784 5780 5775 5771 5770 5765 5768 5771 5781 5779 5762 5750 5757 5764 5766 5764 5761 5757 5754 5750 5745 5744 5743 5742 5741 5740 5739 5740 5739 5739 5738 5738 5736 5735 5732 5731 5729 5730 5731 5732 5733 5731
5760 5777 5778 5773 5772 5773 5761 5784 5784 5777 5762 5745 5752 5725 5745 5753 5753 5754 5754 5751 5749 5748 5746 5744 5742 5740 5741 5740 5739 5738 5737 5737 5737 5736 5734 5731 5728 5725 5726 5728 5729 5730 5731 5730
5759 5775 5772 5769 5779 5784 5776 5790 5783 5773 5757 5738 5738 5727 5734 5747 5742 5747 5751 5751 5750 5749 5747 5744 5743 5743 5742 5741 5738 5737 5736 5735 5734 5734 5733 5731 5728 5727 5726 5727 5727 5727 5728 5728
5770 5784 5782 5782 5792 5793 5790 5780 5767 5751 5737 5718 5727 5723 5725 5737 5744 5749 5753 5754 5752 5751 5749 5746 5745 5743 5741 5740 5738 5736 5734 5732 5732 5732 5732 5731 5728 5726 5724 5724 5724 5724 5724 5724
5755 5771 5785 5791 5777 5783 5779 5749 5722 5715 5705 5708 5727 5723 5729 5753 5760 5759 5758 5758 5756 5754 5750 5746 5744 5742 5740 5739 5737 5735 5732 5730 5731 5731 5731 5731 5729 5728 5726 5725 5724 5722 5721 5720
5733 5740 5771 5783 5776 5766 5765 5750 5717 5701 5699 5706 5719 5718 5741 5766 5770 5769 5766 5763 5760 5755 5752 5750 5747 5744 5742 5740 5738 5735 5732 5731 5731 5731 5730 5730 5729 5728 5726 5726 5724 5723 5721 5720
5733 5739 5776 5787 5790 5778 5759 5746 5747 5722 5711 5701 5709 5724 5745 5765 5767 5767 5764 5761 5758 5756 5754 5751 5749 5746 5744 5741 5739 5737 5734 5732 5731 5731 5730 5729 5729 5727 5726 5725 5724 5723 5721 5720
5745 5738 5761 5777 5783 5778 5770 5756 5733 5715 5699 5695 5705 5714 5725 5749 5756 5761 5760 5758 5758 5756 5754 5752 5750 5748 5746 5744 5741 5739 5736 5734 5732 5731 5729 5729 5728 5727 5725 5724 5722 5722 5721 5719
5746 5732 5742 5755 5753 5752 5754 5744 5729 5714 5711 5695 5691 5714 5755 5756 5761 5760 5761 5762 5760 5758 5757 5754 5752 5750 5748 5745 5742 5739 5736 5733 5731 5730 5729 5728 5726 5726 5724 5723 5722 5721 5719 5717
5739 5725 5719 5736 5756 5765 5754 5741 5728 5709 5704 5702 5697 5719 5770 5768 5768 5766 5764 5766 5765 5764 5761 5757 5754 5750 5746 5743 5741 5738 5736 5734 5733 5731 5729 5727 5725 5724 5722 5721 5720 5719 5717 5716
5735 5717 5704 5713 5726 5741 5739 5739 5733 5721 5708 5700 5697 5723 5768 5768 5768 5769 5768 5768 5767 5765 5762 5758 5754 5750 5748 5745 5742 5739 5738 5736 5734 5731 5728 5726 5724 5722 5721 5720 5718 5717 5715 5713
5737 5711 5703 5699 5708 5721 5723 5731 5733 5720 5703 5702 5713 5729 5751 5760 5764 5767 5769 5770 5768 5767 5765 5760 5756 5753 5751 5748 5745 5742 5739 5738 5735 5732 5729 5726 5724 5723 5721 5720 5718 5716 5714 5711
5723 5705 5710 5714 5723 5724 5725 5730 5732 5725 5721 5715 5726 5734 5749 5760 5766 5769 5772 5772 5769 5766 5765 5763 5759 5756 5753 5750 5747 5745 5741 5739 5737 5733 5729 5727 5726 5723 5721 5719 5716 5714 5712 5710
5707 5699 5701 5704 5717 5721 5722 5731 5733 5732 5733 5731 5735 5739 5759 5767 5770 5769 5770 5773 5770 5769 5768 5767 5764 5760 5756 5753 5750 5747 5744 5741 5739 5735 5731 5729 5725 5722 5720 5717 5715 5712 5709 5707
5694 5690 5685 5685 5702 5708 5704 5724 5729 5731 5736 5734 5728 5741 5755 5758 5764 5768 5770 5773 5774 5774 5772 5770 5769 5766 5763 5760 5756 5751 5748 5744 5739 5736 5733 5729 5726 5722 5719 5717 5713 5710 5707 5704
5688 5681 5673 5675 5684 5676 5707 5729 5732 5730 5734 5739 5741 5747 5752 5759 5768 5774 5774 5774 5777 5777 5776 5775 5773 5771 5768 5766 5761 5757 5751 5745 5741 5737 5733 5730 5726 5722 5718 5714 5711 5708 5705 5701
5690 5680 5669 5666 5668 5680 5705 5718 5721 5719 5721 5733 5735 5743 5751 5760 5763 5765 5774 5776 5779 5781 5782 5780 5778 5775 5771 5767 5764 5757 5751 5746 5741 5737 5734 5731 5727 5722 5717 5712 5709 5706 5702 5699
5684 5680 5670 5666 5665 5666 5693 5713 5725 5721 5710 5728 5731 5736 5743 5748 5739 5751 5770 5775 5776 5778 5780 5779 5778 5774 5769 5767 5763 5756 5750 5746 5742 5740 5737 5732 5727 5722 5716 5712 5708 5704 5700 5697
5665 5665 5663 5660 5661 5674 5695 5709 5718 5697 5704 5721 5726 5731 5735 5737 5741 5755 5768 5772 5773 5775 5776 5776 5774 5771 5769 5767 5762 5754 5750 5747 5746 5742 5736 5731 5726 5722 5716 5711 5706 5702 5698 5694
5658 5655 5656 5656 5655 5666 5692 5697 5694 5697 5710 5717 5722 5727 5730 5736 5746 5755 5764 5767 5768 5770 5772 5772 5769 5767 5767 5766 5761 5754 5750 5750 5745 5739 5733 5728 5723 5719 5714 5707 5702 5698 5694 5689
5658 5659 5656 5658 5663 5680 5688 5690 5696 5701 5704 5712 5717 5722 5726 5731 5738 5746 5753 5757 5762 5766 5767 5767 5766 5763 5761 5761 5759 5753 5751 5746 5740 5733 5729 5724 5719 5715 5711 5704 5698 5693 5689 5685
5659 5663 5660 5660 5668 5678 5684 5689 5695 5700 5703 5711 5715 5719 5723 5725 5732 5738 5744 5748 5754 5757 5759 5760 5759 5756 5753 5754 5754 5751 5747 5742 5736 5729 5724 5719 5714 5709 5705 5700 5696 5690 5685 5680
5656 5658 5655 5657 5668 5675 5681 5686 5692 5698 5703 5707 5711 5716 5719 5722 5726 5731 5736 5740 5746 5749 5751 5752 5750 5747 5745 5746 5744 5742 5738 5734 5728 5723 5718 5713 5709 5704 5699 5695 5692 5689 5685 5682
5655 5655 5654 5657 5667 5668 5674 5685 5691 5693 5697 5702 5705 5708 5713 5717 5719 5723 5727 5731 5736 5739 5741 5740 5738 5737 5736 5735 5733 5732 5731 5727 5721 5714 5710 5706 5702 5697 5692 5688 5684 5683 5680 5677